QPF
0.02 0.02 0.04 0.03 0.03 0.03 0.03 0.05 0.05 0.04 0.04 0.06 0.06 0.07 0.06 0.04 0.03 0.02 0.04 0.02 0.01 0.02 0.02 0.01 0.01 0.01 0.01 0.01 0.02 0.02 0.01 0.01 0.02 0.02 0.02 0.02 0.02 0.01 0.01 0.01 0.01 0.01 0.01
0.01 0.02 0.03 0.03 0.04 0.04 0.03 0.03 0.04 0.04 0.04 0.06 0.06 0.04 0.04 0.04 0.04 0.03 0.05 0.03 0.02 0.02 0.01 0.02 0.01 0.01 0.01 0.01 0.01 0.01 0.02 0.02 0.02 0.03 0.02 0.03 0.02 0.02 0.03 0.02 0.02 0.01 0.01
0.02 0.01 0.02 0.03 0.03 0.04 0.04 0.06 0.05 0.06 0.07 0.07 0.06 0.05 0.05 0.03 0.03 0.03 0.03 0.04 0.03 0.02 0.02 0.02 0.03 0.02 0.02 0.02 0.02 0.01 0.02 0.02 0.02 0.02 0.03 0.03 0.03 0.02 0.02 0.02 0.02 0.01 0.01
0.02 0.01 0.02 0.03 0.03 0.04 0.04 0.06 0.05 0.05 0.06 0.07 0.07 0.08 0.08 0.05 0.03 0.03 0.03 0.03 0.04 0.04 0.02 0.02 0.02 0.03 0.03 0.03 0.03 0.02 0.02 0.02 0.02 0.02 0.02 0.02 0.01 0.01 0.02 0.02 0.02 0.02 0.02
0.01 0.02 0.02 0.02 0.02 0.04 0.04 0.03 0.05 0.06 0.06 0.06 0.07 0.08 0.08 0.07 0.05 0.04 0.05 0.06 0.06 0.05 0.06 0.05 0.03 0.03 0.05 0.05 0.04 0.05 0.04 0.04 0.03 0.02 0.02 0.02 0.02 0.02 0.02 0.02 0.02 0.03 0.03
0.01 0.01 0.02 0.03 0.02 0.02 0.03 0.04 0.05 0.05 0.05 0.06 0.09 0.08 0.07 0.06 0.08 0.09 0.09 0.10 0.09 0.09 0.10 0.07 0.05 0.05 0.07 0.07 0.06 0.08 0.09 0.09 0.08 0.07 0.06 0.06 0.05 0.05 0.04 0.03 0.03 0.03 0.03
0.01 0.01 0.02 0.03 0.02 0.02 0.03 0.05 0.05 0.06 0.04 0.06 0.09 0.08 0.08 0.08 0.10 0.08 0.10 0.13 0.14 0.13 0.10 0.09 0.08 0.08 0.07 0.07 0.07 0.10 0.12 0.12 0.10 0.10 0.09 0.08 0.07 0.07 0.07 0.06 0.05 0.05 0.05
0.03 0.02 0.03 0.04 0.03 0.02 0.03 0.04 0.05 0.06 0.04 0.05 0.07 0.07 0.06 0.08 0.11 0.09 0.11 0.11 0.15 0.20 0.18 0.15 0.15 0.16 0.17 0.13 0.13 0.12 0.14 0.15 0.15 0.14 0.11 0.08 0.07 0.07 0.07 0.07 0.05 0.05 0.05
0.04 0.03 0.03 0.04 0.03 0.03 0.04 0.04 0.06 0.05 0.06 0.06 0.07 0.08 0.08 0.09 0.10 0.13 0.14 0.14 0.13 0.12 0.14 0.17 0.18 0.17 0.16 0.16 0.18 0.20 0.17 0.15 0.14 0.14 0.12 0.09 0.07 0.05 0.04 0.04 0.05 0.06 0.07
0.03 0.03 0.04 0.04 0.03 0.03 0.04 0.04 0.08 0.08 0.07 0.06 0.07 0.07 0.09 0.11 0.10 0.12 0.13 0.13 0.12 0.12 0.13 0.15 0.14 0.16 0.16 0.16 0.17 0.17 0.14 0.13 0.12 0.12 0.11 0.10 0.09 0.09 0.08 0.07 0.07 0.07 0.07
0.04 0.04 0.05 0.04 0.03 0.04 0.04 0.04 0.05 0.08 0.06 0.07 0.07 0.07 0.07 0.10 0.08 0.09 0.10 0.11 0.10 0.11 0.13 0.14 0.13 0.15 0.17 0.14 0.12 0.11 0.12 0.12 0.10 0.10 0.12 0.13 0.15 0.13 0.11 0.10 0.11 0.10 0.10
0.04 0.05 0.05 0.03 0.03 0.05 0.05 0.05 0.05 0.06 0.06 0.05 0.06 0.07 0.06 0.07 0.08 0.09 0.09 0.08 0.07 0.07 0.09 0.08 0.08 0.08 0.08 0.09 0.10 0.12 0.10 0.11 0.11 0.10 0.10 0.12 0.14 0.14 0.13 0.13 0.14 0.15 0.15
0.05 0.07 0.05 0.04 0.04 0.04 0.05 0.06 0.06 0.05 0.05 0.06 0.07 0.07 0.06 0.07 0.06 0.07 0.06 0.06 0.06 0.05 0.06 0.06 0.05 0.05 0.05 0.07 0.10 0.10 0.09 0.10 0.09 0.09 0.09 0.08 0.09 0.11 0.13 0.14 0.14 0.15 0.16
0.07 0.09 0.09 0.09 0.07 0.07 0.08 0.07 0.05 0.04 0.05 0.06 0.06 0.06 0.05 0.06 0.04 0.04 0.05 0.06 0.05 0.04 0.05 0.06 0.06 0.07 0.08 0.08 0.08 0.08 0.08 0.10 0.09 0.07 0.08 0.09 0.10 0.12 0.12 0.12 0.13 0.14 0.14
0.08 0.11 0.15 0.13 0.11 0.09 0.07 0.06 0.05 0.05 0.05 0.05 0.05 0.05 0.05 0.04 0.04 0.04 0.04 0.05 0.04 0.03 0.04 0.04 0.05 0.06 0.07 0.08 0.08 0.08 0.08 0.09 0.10 0.09 0.08 0.07 0.06 0.07 0.08 0.09 0.09 0.10 0.11
0.14 0.15 0.17 0.15 0.11 0.08 0.07 0.07 0.05 0.06 0.07 0.07 0.06 0.04 0.04 0.03 0.03 0.03 0.03 0.04 0.04 0.03 0.04 0.05 0.05 0.04 0.04 0.05 0.06 0.05 0.04 0.05 0.05 0.06 0.05 0.04 0.04 0.04 0.04 0.05 0.06 0.07 0.07
0.18 0.14 0.13 0.11 0.09 0.07 0.06 0.07 0.06 0.06 0.06 0.07 0.06 0.05 0.05 0.04 0.03 0.03 0.04 0.06 0.06 0.05 0.04 0.04 0.04 0.05 0.07 0.08 0.07 0.04 0.03 0.02 0.03 0.03 0.02 0.02 0.02 0.02 0.02 0.03 0.03 0.04 0.04
0.23 0.19 0.11 0.08 0.07 0.07 0.09 0.09 0.08 0.07 0.04 0.04 0.05 0.04 0.04 0.03 0.03 0.03 0.04 0.05 0.05 0.05 0.04 0.03 0.04 0.06 0.06 0.07 0.05 0.03 0.03 0.02 0.02 0.03 0.03 0.02 0.02 0.02 0.02 0.02 0.02 0.02 0.02
0.13 0.17 0.15 0.12 0.09 0.07 0.06 0.06 0.06 0.06 0.05 0.05 0.06 0.05 0.04 0.04 0.03 0.02 0.03 0.03 0.03 0.05 0.06 0.04 0.04 0.04 0.05 0.06 0.05 0.05 0.04 0.03 0.03 0.03 0.03 0.02 0.03 0.02 0.02 0.03 0.03 0.03 0.03
0.04 0.05 0.04 0.04 0.03 0.03 0.03 0.03 0.03 0.04 0.04 0.04 0.04 0.03 0.03 0.02 0.02 0.03 0.04 0.03 0.03 0.04 0.05 0.04 0.03 0.03 0.04 0.05 0.07 0.07 0.07 0.05 0.03 0.02 0.03 0.02 0.02 0.02 0.02 0.02 0.02 0.02 0.02
0.05 0.02 0.02 0.01 0.01 0.01 0.02 0.02 0.02 0.03 0.03 0.04 0.04 0.03 0.02 0.03 0.04 0.04 0.05 0.06 0.05 0.05 0.04 0.03 0.04 0.04 0.05 0.05 0.07 0.09 0.11 0.09 0.05 0.03 0.02 0.02 0.01 0.01 0.01 0.01 0.01 0.01 0.01
0.05 0.02 0.01 0.01 0.00 0.00 0.01 0.02 0.02 0.02 0.03 0.03 0.03 0.02 0.03 0.04 0.05 0.05 0.06 0.05 0.05 0.04 0.04 0.04 0.04 0.04 0.04 0.04 0.04 0.05 0.07 0.08 0.05 0.03 0.01 0.01 0.01 0.01 0.01 0.01 0.01 0.01 0.01
0.02 0.02 0.01 0.01 0.00 0.01 0.01 0.01 0.01 0.02 0.03 0.03 0.02 0.02 0.01 0.02 0.04 0.03 0.04 0.04 0.04 0.05 0.05 0.03 0.03 0.02 0.02 0.02 0.02 0.02 0.02 0.03 0.02 0.01 0.01 0.01 0.02 0.02 0.02 0.02 0.02 0.01 0.01
0.02 0.01 0.01 0.00 0.00 0.01 0.01 0.02 0.02 0.01 0.02 0.02 0.02 0.01 0.01 0.02 0.03 0.03 0.04 0.06 0.08 0.07 0.04 0.03 0.02 0.02 0.02 0.03 0.03 0.02 0.01 0.01 0.01 0.01 0.01 0.01 0.01 0.01 0.01 0.01 0.01 0.01 0.01
0.01 0.00 0.00 0.00 0.00 0.01 0.01 0.02 0.02 0.01 0.01 0.02 0.01 0.01 0.01 0.01 0.03 0.04 0.05 0.06 0.06 0.03 0.02 0.01 0.01 0.01 0.02 0.02 0.02 0.02 0.01 0.01 0.01 0.00 0.00 0.00 0.00 0.00 0.00 0.00 0.00 0.00 0.00
0.01 0.01 0.00 0.00 0.00 0.01 0.01 0.02 0.01 0.01 0.01 0.01 0.01 0.01 0.01 0.01 0.03 0.03 0.02 0.02 0.02 0.01 0.00 0.00 0.00 0.00 0.01 0.01 0.01 0.02 0.02 0.01 0.01 0.01 0.00 0.00 0.00 0.00 0.00 0.00 0.00 0.00 0.00
MSLP
1017.37 1017.47 1017.49 1017.46 1017.39 1017.31 1017.23 1017.17 1017.13 1017.13 1017.17 1017.24 1017.36 1017.51 1017.69 1017.91 1018.14 1018.39 1018.63 1018.85 1019.06 1019.25 1019.42 1019.57 1019.71 1019.85 1019.98 1020.11 1020.22 1020.33 1020.42 1020.50 1020.57 1020.66 1020.76 1020.88 1021.02 1021.17 1021.33 1021.46 1021.57 1021.65 1021.71
1017.20 1017.31 1017.36 1017.37 1017.35 1017.30 1017.24 1017.19 1017.16 1017.16 1017.20 1017.27 1017.38 1017.52 1017.69 1017.88 1018.09 1018.30 1018.51 1018.71 1018.90 1019.08 1019.26 1019.44 1019.61 1019.78 1019.94 1020.08 1020.19 1020.27 1020.34 1020.38 1020.43 1020.49 1020.59 1020.72 1020.88 1021.05 1021.24 1021.41 1021.56 1021.67 1021.75
1016.90 1017.02 1017.11 1017.18 1017.22 1017.23 1017.23 1017.22 1017.22 1017.23 1017.27 1017.33 1017.43 1017.55 1017.70 1017.86 1018.03 1018.19 1018.35 1018.51 1018.67 1018.83 1019.01 1019.19 1019.39 1019.58 1019.75 1019.90 1020.01 1020.08 1020.13 1020.15 1020.18 1020.23 1020.32 1020.46 1020.64 1020.84 1021.06 1021.26 1021.44 1021.59 1021.71
1016.49 1016.62 1016.76 1016.89 1017.01 1017.10 1017.17 1017.23 1017.26 1017.30 1017.35 1017.41 1017.50 1017.61 1017.73 1017.86 1017.98 1018.10 1018.20 1018.31 1018.42 1018.54 1018.68 1018.85 1019.04 1019.23 1019.41 1019.57 1019.68 1019.75 1019.79 1019.81 1019.84 1019.89 1019.99 1020.13 1020.33 1020.55 1020.79 1021.02 1021.22 1021.40 1021.54
1016.01 1016.15 1016.32 1016.52 1016.73 1016.91 1017.06 1017.18 1017.27 1017.34 1017.41 1017.49 1017.58 1017.68 1017.79 1017.89 1017.98 1018.05 1018.10 1018.15 1018.19 1018.25 1018.35 1018.48 1018.63 1018.81 1018.98 1019.13 1019.25 1019.33 1019.38 1019.41 1019.45 1019.51 1019.62 1019.77 1019.97 1020.20 1020.44 1020.68 1020.89 1021.08 1021.24
1015.52 1015.65 1015.85 1016.11 1016.38 1016.64 1016.87 1017.06 1017.20 1017.31 1017.41 1017.51 1017.62 1017.74 1017.86 1017.96 1018.04 1018.08 1018.09 1018.08 1018.05 1018.05 1018.07 1018.13 1018.24 1018.37 1018.52 1018.66 1018.78 1018.87 1018.94 1019.00 1019.06 1019.14 1019.26 1019.42 1019.62 1019.83 1020.06 1020.27 1020.47 1020.64 1020.80
1015.07 1015.18 1015.39 1015.68 1016.01 1016.32 1016.61 1016.85 1017.03 1017.19 1017.33 1017.47 1017.62 1017.78 1017.93 1018.07 1018.16 1018.20 1018.18 1018.12 1018.04 1017.96 1017.91 1017.90 1017.93 1018.01 1018.13 1018.25 1018.37 1018.47 1018.56 1018.64 1018.73 1018.83 1018.96 1019.11 1019.29 1019.47 1019.66 1019.83 1019.98 1020.11 1020.24
1014.72 1014.80 1015.00 1015.29 1015.63 1015.97 1016.28 1016.54 1016.76 1016.95 1017.13 1017.33 1017.54 1017.76 1017.98 1018.18 1018.32 1018.38 1018.36 1018.28 1018.16 1018.02 1017.89 1017.80 1017.77 1017.80 1017.87 1017.97 1018.08 1018.19 1018.30 1018.40 1018.50 1018.61 1018.73 1018.87 1019.01 1019.14 1019.26 1019.36 1019.45 1019.52 1019.60
1014.51 1014.55 1014.71 1014.97 1015.29 1015.61 1015.90 1016.16 1016.39 1016.60 1016.82 1017.07 1017.36 1017.66 1017.97 1018.24 1018.45 1018.56 1018.58 1018.50 1018.36 1018.18 1018.01 1017.87 1017.78 1017.76 1017.80 1017.87 1017.98 1018.09 1018.20 1018.31 1018.42 1018.52 1018.62 1018.71 1018.79 1018.86 1018.90 1018.92 1018.92 1018.92 1018.93
1014.46 1014.45 1014.56 1014.76 1015.02 1015.28 1015.52 1015.74 1015.95 1016.16 1016.41 1016.71 1017.06 1017.44 1017.84 1018.20 1018.49 1018.68 1018.74 1018.70 1018.57 1018.39 1018.20 1018.04 1017.94 1017.89 1017.91 1017.98 1018.07 1018.18 1018.29 1018.39 1018.47 1018.54 1018.60 1018.64 1018.65 1018.64 1018.60 1018.53 1018.44 1018.36 1018.31
1014.56 1014.50 1014.55 1014.68 1014.84 1015.01 1015.18 1015.33 1015.49 1015.68 1015.92 1016.25 1016.64 1017.09 1017.56 1018.01 1018.37 1018.63 1018.76 1018.78 1018.70 1018.56 1018.40 1018.27 1018.18 1018.15 1018.17 1018.25 1018.34 1018.44 1018.53 1018.61 1018.66 1018.69 1018.69 1018.66 1018.60 1018.51 1018.38 1018.23 1018.07 1017.92 1017.80
1014.78 1014.69 1014.67 1014.71 1014.77 1014.84 1014.90 1014.97 1015.05 1015.19 1015.41 1015.73 1016.14 1016.62 1017.13 1017.63 1018.06 1018.38 1018.58 1018.67 1018.67 1018.61 1018.53 1018.46 1018.44 1018.47 1018.54 1018.64 1018.75 1018.84 1018.92 1018.96 1018.96 1018.93 1018.86 1018.77 1018.64 1018.48 1018.28 1018.06 1017.84 1017.63 1017.47
1015.09 1014.96 1014.89 1014.85 1014.82 1014.78 1014.73 1014.70 1014.70 1014.77 1014.94 1015.22 1015.60 1016.07 1016.58 1017.09 1017.55 1017.91 1018.18 1018.35 1018.44 1018.49 1018.53 1018.59 1018.68 1018.80 1018.95 1019.10 1019.24 1019.34 1019.40 1019.40 1019.36 1019.27 1019.14 1018.98 1018.80 1018.58 1018.33 1018.07 1017.81 1017.56 1017.36
1015.43 1015.30 1015.19 1015.08 1014.97 1014.84 1014.70 1014.57 1014.48 1014.47 1014.57 1014.78 1015.10 1015.52 1015.98 1016.46 1016.90 1017.29 1017.60 1017.85 1018.04 1018.22 1018.41 1018.61 1018.85 1019.10 1019.35 1019.59 1019.77 1019.89 1019.94 1019.92 1019.83 1019.70 1019.52 1019.32 1019.09 1018.84 1018.57 1018.29 1018.01 1017.74 1017.52
1015.79 1015.66 1015.53 1015.39 1015.22 1015.03 1014.82 1014.62 1014.46 1014.37 1014.38 1014.50 1014.73 1015.05 1015.43 1015.83 1016.23 1016.59 1016.93 1017.23 1017.53 1017.84 1018.18 1018.55 1018.94 1019.35 1019.73 1020.05 1020.30 1020.46 1020.52 1020.48 1020.37 1020.21 1020.01 1019.79 1019.55 1019.29 1019.02 1018.74 1018.45 1018.18 1017.94
1016.14 1016.04 1015.92 1015.77 1015.58 1015.36 1015.11 1014.87 1014.65 1014.50 1014.42 1014.45 1014.57 1014.77 1015.03 1015.32 1015.63 1015.95 1016.28 1016.62 1017.00 1017.43 1017.90 1018.43 1018.99 1019.53 1020.04 1020.47 1020.79 1020.99 1021.08 1021.06 1020.95 1020.79 1020.60 1020.38 1020.16 1019.92 1019.67 1019.40 1019.13 1018.86 1018.61
1016.49 1016.43 1016.33 1016.20 1016.03 1015.82 1015.58 1015.32 1015.08 1014.88 1014.74 1014.67 1014.68 1014.75 1014.87 1015.04 1015.25 1015.49 1015.78 1016.13 1016.55 1017.06 1017.65 1018.30 1018.98 1019.66 1020.27 1020.80 1021.19 1021.46 1021.59 1021.60 1021.53 1021.41 1021.25 1021.08 1020.89 1020.70 1020.48 1020.25 1020.00 1019.74 1019.49
1016.85 1016.83 1016.78 1016.69 1016.56 1016.39 1016.18 1015.94 1015.70 1015.48 1015.29 1015.15 1015.05 1015.01 1015.00 1015.04 1015.13 1015.28 1015.50 1015.82 1016.26 1016.81 1017.46 1018.19 1018.96 1019.72 1020.42 1021.02 1021.48 1021.80 1021.99 1022.07 1022.06 1022.00 1021.91 1021.81 1021.70 1021.57 1021.41 1021.22 1020.99 1020.74 1020.50
1017.22 1017.24 1017.24 1017.21 1017.14 1017.02 1016.87 1016.67 1016.46 1016.24 1016.03 1015.84 1015.66 1015.52 1015.40 1015.32 1015.29 1015.34 1015.49 1015.75 1016.16 1016.70 1017.36 1018.12 1018.92 1019.72 1020.46 1021.10 1021.62 1022.00 1022.26 1022.41 1022.49 1022.52 1022.53 1022.53 1022.51 1022.46 1022.37 1022.23 1022.03 1021.81 1021.56
1017.59 1017.66 1017.72 1017.74 1017.73 1017.67 1017.57 1017.43 1017.26 1017.06 1016.85 1016.64 1016.42 1016.20 1016.00 1015.82 1015.70 1015.65 1015.71 1015.90 1016.24 1016.73 1017.36 1018.08 1018.87 1019.66 1020.40 1021.06 1021.61 1022.04 1022.36 1022.60 1022.78 1022.93 1023.05 1023.16 1023.25 1023.29 1023.28 1023.20 1023.05 1022.85 1022.61
1017.94 1018.06 1018.15 1018.22 1018.26 1018.25 1018.20 1018.12 1017.99 1017.84 1017.65 1017.44 1017.21 1016.96 1016.71 1016.47 1016.27 1016.15 1016.13 1016.23 1016.49 1016.90 1017.44 1018.09 1018.81 1019.54 1020.25 1020.89 1021.45 1021.92 1022.31 1022.64 1022.92 1023.19 1023.44 1023.67 1023.87 1024.01 1024.09 1024.07 1023.98 1023.81 1023.60
1018.24 1018.39 1018.51 1018.61 1018.67 1018.70 1018.69 1018.65 1018.57 1018.46 1018.32 1018.14 1017.93 1017.69 1017.43 1017.17 1016.93 1016.75 1016.66 1016.69 1016.86 1017.16 1017.60 1018.14 1018.76 1019.41 1020.05 1020.66 1021.21 1021.70 1022.14 1022.55 1022.93 1023.30 1023.67 1024.02 1024.33 1024.58 1024.74 1024.80 1024.76 1024.64 1024.47
1018.45 1018.61 1018.75 1018.85 1018.92 1018.96 1018.98 1018.97 1018.93 1018.87 1018.78 1018.66 1018.50 1018.30 1018.08 1017.84 1017.60 1017.40 1017.26 1017.22 1017.30 1017.50 1017.82 1018.25 1018.75 1019.30 1019.86 1020.41 1020.93 1021.43 1021.91 1022.37 1022.84 1023.31 1023.77 1024.22 1024.63 1024.97 1025.22 1025.36 1025.38 1025.32 1025.19
1018.52 1018.69 1018.82 1018.91 1018.97 1019.00 1019.02 1019.03 1019.04 1019.03 1019.01 1018.96 1018.88 1018.76 1018.60 1018.41 1018.21 1018.02 1017.86 1017.78 1017.79 1017.90 1018.11 1018.43 1018.82 1019.26 1019.73 1020.22 1020.70 1021.19 1021.68 1022.18 1022.70 1023.23 1023.77 1024.29 1024.77 1025.19 1025.51 1025.71 1025.81 1025.81 1025.74
1018.45 1018.61 1018.72 1018.78 1018.82 1018.83 1018.85 1018.87 1018.91 1018.96 1019.01 1019.05 1019.07 1019.05 1018.99 1018.88 1018.74 1018.58 1018.44 1018.34 1018.30 1018.34 1018.47 1018.68 1018.97 1019.32 1019.71 1020.13 1020.57 1021.03 1021.51 1022.02 1022.56 1023.12 1023.69 1024.25 1024.77 1025.23 1025.60 1025.87 1026.03 1026.09 1026.09
1018.25 1018.39 1018.47 1018.50 1018.50 1018.50 1018.51 1018.55 1018.62 1018.73 1018.86 1019.00 1019.13 1019.22 1019.26 1019.25 1019.18 1019.08 1018.97 1018.87 1018.80 1018.80 1018.87 1019.01 1019.22 1019.49 1019.81 1020.17 1020.56 1020.98 1021.44 1021.92 1022.44 1022.99 1023.55 1024.11 1024.64 1025.11 1025.51 1025.82 1026.03 1026.15 1026.21
Thickness
5757 5756 5756 5756 5756 5755 5755 5754 5754 5755 5754 5754 5754 5753 5751 5749 5747 5745 5744 5742 5740 5739 5737 5735 5734 5732 5729 5727 5726 5724 5722 5721 5719 5718 5716 5715 5714 5712 5711 5710 5709 5707 5706
5758 5757 5757 5757 5757 5757 5756 5756 5755 5755 5755 5755 5755 5754 5752 5750 5748 5747 5745 5743 5741 5739 5737 5736 5734 5732 5730 5728 5726 5724 5723 5721 5720 5719 5717 5715 5714 5712 5711 5709 5708 5707 5706
5758 5758 5757 5757 5758 5758 5757 5757 5756 5756 5755 5755 5755 5754 5753 5751 5749 5748 5745 5743 5741 5739 5738 5736 5735 5733 5730 5728 5727 5725 5723 5722 5720 5719 5717 5716 5714 5712 5711 5710 5708 5707 5705
5759 5758 5758 5758 5758 5758 5758 5757 5756 5755 5754 5754 5753 5754 5753 5752 5750 5748 5746 5744 5742 5740 5738 5737 5735 5733 5731 5729 5727 5726 5724 5722 5720 5719 5718 5716 5714 5712 5711 5709 5708 5707 5705
5761 5760 5759 5758 5759 5758 5758 5758 5756 5754 5752 5752 5752 5752 5752 5751 5750 5748 5746 5744 5742 5740 5738 5737 5735 5733 5731 5730 5728 5726 5724 5723 5721 5719 5717 5716 5714 5712 5711 5709 5708 5706 5705
5761 5760 5759 5759 5759 5758 5757 5756 5755 5755 5753 5752 5752 5751 5750 5750 5749 5748 5746 5745 5743 5741 5739 5737 5735 5733 5731 5730 5728 5726 5725 5723 5721 5719 5717 5716 5714 5712 5710 5709 5707 5706 5704
5762 5761 5760 5759 5758 5757 5757 5756 5755 5753 5752 5752 5748 5745 5746 5748 5747 5747 5746 5744 5742 5740 5739 5737 5735 5733 5731 5730 5728 5726 5724 5722 5720 5719 5717 5715 5714 5712 5710 5708 5706 5705 5704
5762 5761 5760 5759 5758 5757 5756 5755 5754 5751 5750 5751 5745 5739 5734 5737 5742 5746 5744 5742 5740 5739 5737 5735 5733 5731 5730 5729 5727 5725 5723 5721 5719 5717 5716 5714 5712 5710 5708 5706 5705 5704 5702
5762 5761 5761 5759 5758 5757 5755 5755 5754 5751 5747 5748 5748 5741 5732 5728 5733 5738 5740 5739 5737 5736 5735 5733 5731 5729 5728 5726 5725 5723 5721 5719 5717 5715 5714 5712 5711 5709 5706 5704 5703 5701 5700
5762 5761 5761 5760 5758 5757 5756 5755 5754 5752 5749 5745 5745 5745 5742 5738 5731 5728 5732 5734 5734 5733 5732 5731 5729 5727 5725 5723 5721 5719 5718 5716 5715 5713 5711 5709 5708 5706 5704 5702 5700 5698 5697
5761 5761 5760 5759 5758 5757 5756 5755 5754 5752 5750 5746 5744 5742 5740 5738 5735 5728 5723 5725 5727 5728 5728 5726 5725 5723 5721 5719 5717 5715 5714 5712 5712 5710 5708 5706 5704 5702 5701 5699 5697 5695 5693
5759 5759 5759 5758 5757 5756 5755 5754 5753 5751 5749 5747 5744 5742 5739 5735 5732 5728 5723 5721 5720 5721 5722 5722 5720 5718 5716 5714 5712 5711 5709 5708 5707 5705 5704 5702 5700 5698 5697 5695 5693 5691 5689
5755 5756 5757 5756 5756 5755 5754 5753 5751 5749 5747 5745 5743 5741 5739 5736 5734 5730 5725 5720 5717 5717 5716 5715 5714 5712 5710 5708 5706 5705 5704 5702 5701 5699 5698 5696 5694 5693 5691 5689 5687 5686 5684
5755 5755 5755 5754 5754 5753 5751 5750 5748 5746 5745 5742 5741 5739 5736 5734 5733 5730 5725 5719 5713 5710 5709 5708 5707 5706 5704 5702 5700 5699 5697 5695 5694 5693 5691 5689 5688 5686 5684 5682 5680 5679 5677
5754 5753 5752 5750 5750 5749 5747 5746 5743 5742 5741 5739 5737 5736 5733 5732 5730 5729 5726 5722 5714 5705 5702 5701 5700 5699 5697 5695 5693 5691 5689 5687 5686 5684 5682 5681 5679 5677 5675 5674 5672 5671 5669
5751 5749 5748 5747 5745 5744 5743 5741 5739 5738 5736 5735 5733 5731 5729 5728 5726 5725 5723 5720 5716 5709 5700 5697 5695 5694 5691 5689 5686 5684 5681 5679 5677 5675 5673 5671 5670 5668 5666 5664 5663 5661 5660
5746 5745 5743 5742 5741 5739 5738 5736 5734 5733 5731 5729 5728 5726 5724 5723 5721 5719 5718 5715 5711 5707 5698 5692 5690 5688 5685 5682 5679 5676 5673 5671 5668 5665 5663 5662 5660 5658 5656 5654 5652 5651 5649
5743 5741 5739 5737 5736 5735 5733 5731 5729 5727 5725 5722 5721 5720 5719 5718 5716 5714 5712 5709 5705 5702 5696 5688 5684 5681 5678 5675 5672 5669 5665 5662 5659 5656 5654 5652 5650 5647 5645 5643 5641 5639 5637
5740 5738 5736 5733 5731 5729 5727 5726 5724 5721 5719 5717 5716 5714 5713 5712 5709 5708 5706 5703 5699 5696 5691 5685 5678 5675 5671 5668 5665 5660 5657 5653 5650 5647 5644 5642 5639 5637 5635 5632 5630 5628 5626
5737 5734 5731 5728 5726 5724 5722 5720 5718 5715 5713 5712 5710 5709 5707 5705 5703 5701 5699 5695 5692 5687 5682 5678 5672 5668 5664 5660 5657 5652 5647 5644 5641 5638 5634 5631 5628 5626 5624 5621 5619 5616 5614
5732 5729 5726 5723 5721 5719 5717 5714 5712 5710 5707 5705 5703 5702 5701 5700 5698 5695 5692 5688 5685 5680 5675 5670 5665 5661 5656 5652 5648 5645 5640 5636 5632 5628 5625 5621 5618 5615 5612 5610 5607 5605 5602
5726 5723 5720 5717 5715 5714 5712 5710 5707 5704 5701 5699 5696 5695 5693 5691 5690 5688 5685 5683 5680 5674 5668 5663 5658 5654 5650 5647 5643 5640 5634 5629 5623 5620 5616 5611 5608 5605 5602 5599 5596 5594 5591
5720 5717 5714 5712 5709 5708 5707 5705 5702 5699 5695 5693 5690 5688 5687 5685 5683 5680 5678 5675 5672 5669 5666 5660 5654 5650 5646 5643 5639 5633 5628 5623 5618 5613 5608 5602 5598 5595 5593 5589 5586 5583 5581
5715 5712 5708 5706 5704 5702 5701 5699 5696 5692 5689 5686 5684 5682 5679 5677 5676 5673 5670 5667 5663 5660 5658 5655 5650 5646 5643 5639 5634 5629 5623 5617 5611 5606 5602 5594 5590 5586 5584 5581 5577 5574 5572
5711 5707 5704 5701 5698 5696 5696 5694 5690 5686 5682 5679 5677 5675 5673 5671 5669 5666 5663 5658 5655 5651 5650 5647 5644 5641 5637 5633 5629 5623 5615 5608 5602 5598 5594 5589 5583 5578 5575 5572 5569 5566 5563
5707 5703 5699 5696 5694 5692 5691 5688 5685 5681 5676 5672 5670 5668 5667 5664 5662 5659 5655 5651 5646 5643 5641 5638 5635 5632 5629 5625 5621 5617 5611 5603 5596 5591 5588 5583 5577 5571 5566 5565 5562 5559 5555